This is the latest recevied weather packets stored in our database for station/object K5VW. If no packets are shown the sender has not sent any weather packets the latest 1 day(s).
| Time | Temp. | Humidity | Pressure | Rain* | Wind** | Luminosity | Snow |
|---|---|---|---|---|---|---|---|
| 1778064394 | 13.89° C | 56% | 1007 hPa | 0 mm | 1.34 m/s, 25° | - | - |
| 1778064332 | 13.89° C | 56% | 1007 hPa | 0 mm | 1.79 m/s, 11° | - | - |
| 1778064278 | 13.89° C | 56% | 1007 hPa | 0 mm | 1.79 m/s, 40° | - | - |
| 1778064211 | 13.89° C | 56% | 1007 hPa | 0 mm | 2.24 m/s, 49° | - | - |
| 1778064150 | 13.89° C | 56% | 1006.5 hPa | 0 mm | 2.24 m/s, 339° | - | - |
| 1778064094 | 13.89° C | 56% | 1006.5 hPa | 0 mm | 2.24 m/s, 47° | - | - |
| 1778064020 | 14.44° C | 56% | 1006.6 hPa | 0 mm | 2.24 m/s, 339° | - | - |
| 1778063962 | 14.44° C | 56% | 1006.6 hPa | 0 mm | 2.24 m/s, 337° | - | - |
| 1778063892 | 14.44° C | 56% | 1006.6 hPa | 0 mm | 2.24 m/s, 330° | - | - |
| 1778063833 | 13.89° C | 56% | 1006.5 hPa | 0 mm | 2.24 m/s, 18° | - | - |
| 1778063767 | 13.89° C | 56% | 1006.5 hPa | 0 mm | 2.24 m/s, 346° | - | - |
| 1778063709 | 13.89° C | 56% | 1006.5 hPa | 0 mm | 2.24 m/s, 320° | - | - |
| 1778063653 | 14.44° C | 56% | 1006.6 hPa | 0 mm | 2.68 m/s, 297° | - | - |
| 1778063522 | 14.44° C | 55% | 1006.6 hPa | 0 mm | 2.24 m/s, 287° | - | - |
| 1778063459 | 14.44° C | 55% | 1006.6 hPa | 0 mm | 1.79 m/s, 300° | - | - |
| 1778063397 | 14.44° C | 54% | 1006.6 hPa | 0 mm | 1.79 m/s, 344° | - | - |
| 1778063344 | 14.44° C | 54% | 1006.6 hPa | 0 mm | 1.79 m/s, 15° | - | - |
| 1778063279 | 14.44° C | 54% | 1006.7 hPa | 0 mm | 1.79 m/s, 48° | - | - |
| 1778063218 | 14.44° C | 53% | 1006.2 hPa | 0 mm | 1.79 m/s, 76° | - | - |
| 1778063151 | 14.44° C | 53% | 1006.2 hPa | 0 mm | 1.34 m/s, 342° | - | - |
| 1778063087 | 14.44° C | 52% | 1006.2 hPa | 0 mm | 1.34 m/s, 346° | - | - |
| 1778063035 | 14.44° C | 52% | 1006.2 hPa | 0 mm | 0.89 m/s, 313° | - | - |
| 1778062968 | 15° C | 51% | 1006.2 hPa | 0 mm | 0.89 m/s, 350° | - | - |
| 1778062910 | 15° C | 51% | 1006.2 hPa | 0 mm | 0.89 m/s, 58° | - | - |
| 1778062850 | 15° C | 51% | 1006.2 hPa | 0 mm | 0.89 m/s, 68° | - | - |
* Rain latest hour (hover to see other rain measurements)
** Current wind speed in m/s (hover to see current wind gust speed)